sat.trackr.live / text

‹ back to catalog

BEIDOU-3S M1S (C57)

NORAD 40749 · 2015-037B

PAYLOAD INACTIVE UNKNOWN

§ Identity

Operator
Country
PRC
Launch date
2015-07-25
Launch site
XICLF
Launch vehicle
Mass (kg)
RCS (m²)
21.54

Purposes: nav

External: N2YO · Heavens-Above · Gunter

§ Orbital elements

Epoch: 2026-09-20T00:32:10.254624Z

Period
773.13 min
Inclination
54.7806°
Eccentricity
0.0001771
Mean motion
1.86255110 rev/d
Perigee alt
21,520.7 km
Apogee alt
21,530.6 km
Semi-major
27,903.8 km
B*
0.0000e+0
RAAN
298.7593°
Arg perigee
39.9707°
Mean anomaly
320.1045°
Rev number
7,589

§ Raw data

BEIDOU-3S M1S (C57)1 40749U 15037B   26263.02234091 -.00000024  00000+0  00000+0 0  99952 40749  54.7806 298.7593 0001771  39.9707 320.1045  1.86255110 75893

JSON: /api/v1/satellites/40749 · /tle

For live sub-satellite position, see the globe view (requires WebGL).

§ Visibility from observer

Set your observer location to see the next 7 days of passes ≥ 10°. The values pass through the URL so the page stays shareable.

No JS? Fill the form by hand. The geolocation button needs JavaScript.